Flag for U.S.A. Weather past 2 weeks in Sidney, Montana, U.S.A.

Now
55 °F

Clear.


Feels Like: 50 °F
Forecast: 42 / 57 °F
Wind: 22 mph from Southeast

Location: Sidney-Richland


UV Index: 0 (Low)

Visibility: 10 mi


Pressure: 29.48 "Hg

Humidity: 41%

Dew point: 32 °F

Location of SidneyLocation

Historic Weather in Sidney

°F

Sidney temperature yesterday

Maximum temperature yesterday: 73 °F (at 2:15 PM)
Minimum temperature yesterday: 41 °F (at 5:55 AM)
Average temperature yesterday: 59 °F

Past Weeks' High & Low Weather Summary

 TemperatureHumidityPressure
High73 °F (Apr 22, 2:15 PM)94% (Apr 18, 7:15 PM)30.33 "Hg (Apr 18, 7:15 PM)
Low21 °F (Apr 14, 6:35 AM)21% (Apr 10, 5:55 PM)29.52 "Hg (Apr 23, 12:55 AM)
Average43 °F54%29.94 "Hg
* Reported Apr 8 1:35 AM — Apr 23 1:15 AM, Sidney, Weather by CustomWeather, © 2014

Note: Actual official high and low records may vary slightly from our data, if they occured in-between our weather recording intervals... More about our weather records

Advertising

Historic Weather Conditions — Data for Previous 24 hours

 ConditionsComfort  
Time TempWeatherWind HumidityBarometerVisibility
1:15 AM
Apr 23
55 °FClear.14 mph38%29.52 "Hg10 mi
12:55 AM57 °FClear.21 mph36%29.52 "Hg10 mi
12:35 AM57 °FClear.18 mph36%29.53 "Hg10 mi
12:15 AM57 °FClear.23 mph36%29.53 "Hg10 mi
11:55 PM
Apr 22
57 °FClear.18 mph36%29.54 "Hg10 mi
11:35 PM57 °FClear.13 mph36%29.57 "Hg10 mi
11:15 PM57 °FClear.8 mph36%29.58 "Hg10 mi
10:55 PM57 °FClear.15 mph36%29.58 "Hg10 mi
10:35 PM59 °FClear.10 mph34%29.60 "Hg10 mi
10:15 PM59 °FClear.9 mph34%29.62 "Hg10 mi
9:55 PM61 °FClear.6 mph31%29.62 "Hg10 mi
9:35 PM61 °FClear.8 mph31%29.62 "Hg10 mi
8:55 PM63 °FSunny.17 mph32%29.62 "Hg10 mi
8:35 PM63 °FSunny.10 mph32%29.62 "Hg10 mi
7:55 PM64 °FSunny.15 mph30%29.61 "Hg10 mi
7:35 PM66 °FSunny.21 mph28%29.62 "Hg10 mi
7:15 PM66 °FSunny.17 mph28%29.62 "Hg10 mi
6:55 PM68 °FSunny.25 mph26%29.61 "Hg10 mi
6:35 PM70 °FSunny.26 mph25%29.61 "Hg10 mi
6:15 PM70 °FSunny.22 mph25%29.62 "Hg9 mi
5:55 PM72 °FSunny.23 mph25%29.62 "Hg10 mi
5:35 PM72 °FSunny.23 mph25%29.63 "Hg10 mi
5:15 PM73 °FSunny.N/A23%29.64 "Hg10 mi
4:55 PM72 °FSunny.N/A25%29.64 "Hg10 mi
4:35 PM72 °FSunny.N/A25%29.65 "Hg10 mi
4:15 PM73 °FSunny.N/A23%29.66 "Hg10 mi
3:55 PM73 °FSunny.N/A23%29.67 "Hg10 mi
3:15 PM73 °FSunny.21 mph23%29.70 "Hg10 mi
2:55 PM73 °FSunny.22 mph23%29.70 "Hg10 mi
2:35 PM73 °FSunny.21 mph23%29.71 "Hg10 mi
2:15 PM73 °FSunny.21 mph23%29.73 "Hg10 mi
1:55 PM72 °FSunny.17 mph25%29.74 "Hg9 mi
1:35 PM72 °FSunny.16 mph25%29.75 "Hg10 mi
1:15 PM70 °FSunny.22 mph25%29.77 "Hg10 mi
12:55 PM70 °FSunny.20 mph25%29.78 "Hg10 mi
12:35 PM70 °FSunny.16 mph23%29.79 "Hg10 mi
12:15 PM68 °FSunny.22 mph24%29.79 "Hg10 mi
11:55 AM66 °FSunny.20 mph26%29.81 "Hg10 mi
11:35 AM66 °FSunny.20 mph26%29.82 "Hg10 mi
11:15 AM64 °FSunny.20 mph28%29.83 "Hg10 mi
10:55 AM64 °FSunny.21 mph28%29.84 "Hg10 mi
10:35 AM63 °FSunny.18 mph30%29.84 "Hg10 mi
10:15 AM63 °FSunny.17 mph30%29.85 "Hg10 mi
9:55 AM63 °FSunny.18 mph30%29.85 "Hg10 mi
9:35 AM61 °FSunny.16 mph31%29.86 "Hg10 mi
9:15 AM61 °FSunny.21 mph29%29.87 "Hg10 mi
8:55 AM59 °FSunny.18 mph34%29.89 "Hg10 mi
8:35 AM57 °FSunny.10 mph36%29.90 "Hg10 mi
8:15 AM55 °FSunny.12 mph38%29.91 "Hg10 mi
7:55 AM54 °FSunny.12 mph41%29.92 "Hg10 mi
7:35 AM50 °FSunny.No wind47%29.93 "Hg10 mi
7:15 AM48 °FSunny.No wind50%29.93 "Hg10 mi
6:55 AM46 °FSunny.5 mph57%29.93 "Hg10 mi
6:35 AM45 °FClear.No wind57%29.93 "Hg10 mi
6:15 AM45 °FClear.No wind57%29.95 "Hg10 mi
5:55 AM41 °FClear.No wind66%29.95 "Hg10 mi
5:35 AM43 °FClear.No wind61%29.96 "Hg10 mi
5:15 AM45 °FClear.3 mph57%29.98 "Hg10 mi
4:55 AM45 °FClear.No wind57%29.99 "Hg10 mi
4:35 AM45 °FClear.3 mph57%29.99 "Hg10 mi
3:55 AM45 °FClear.5 mph57%30.00 "Hg10 mi
3:35 AM48 °FClear.6 mph50%30.01 "Hg10 mi
3:15 AM48 °FClear.5 mph50%30.01 "Hg10 mi
2:55 AM48 °FClear.9 mph50%30.01 "Hg10 mi
2:35 AM48 °FClear.8 mph50%30.01 "Hg10 mi
2:15 AM48 °FClear.5 mph50%30.03 "Hg10 mi
Weather by CustomWeather, © 2014

See weather overview